Location: Fours
(44.3167°N, 6.7000°E)
Time: 23:57:08
(UTC+00:00)

Cosmos 2218 Rocket - Pass Details

Date: 07 June 2022
Orbit: 956 x 1005 km, 82.9° (Epoch: 01 July)

Event Time Altitude Azimuth Distance (km) Brightness Sun altitude
Rises 00:04:19 0° 2° (N) 3,695 8.5 -22.5°
Reaches altitude 10° 00:07:25 10° 16° (NNE) 2,751 7.5 -22.5°
Maximum altitude 00:12:21 23° 68° (ENE) 1,958 5.9 -22.3°
Drops below altitude 10° 00:17:17 10° 120° (ESE) 2,763 6.2 -22.2°
Enters shadow 00:18:24 - 126° (SE) 3,087 6.4 -22.1°
